This is the latest recevied weather packets stored in our database for station/object F5ZYU-10. If no packets are shown the sender has not sent any weather packets the latest 10 day(s).
| Time | Temp. | Humidity | Pressure | Rain* | Wind** | Luminosity | Snow |
|---|---|---|---|---|---|---|---|
| 1787615026 | 20.56° C | 69% | 1021.6 hPa | - | - | - | - |
| 1787614126 | 20.56° C | 70% | 1021.7 hPa | - | - | - | - |
| 1787613226 | 21.11° C | 70% | 1021.7 hPa | - | - | - | - |
| 1787612336 | 21.11° C | 69% | 1021.6 hPa | - | - | - | - |
| 1787609625 | 21.11° C | 69% | 1021.8 hPa | - | - | - | - |
| 1787608725 | 21.11° C | 69% | 1021.8 hPa | - | - | - | - |
| 1787607825 | 21.67° C | 68% | 1021.7 hPa | - | - | - | - |
| 1787606925 | 21.67° C | 68% | 1021.4 hPa | - | - | - | - |
| 1787606024 | 22.22° C | 68% | 1021.4 hPa | - | - | - | - |
| 1787605132 | 22.22° C | 67% | 1021.3 hPa | - | - | - | - |
| 1787604224 | 22.22° C | 67% | 1021.6 hPa | - | - | - | - |
| 1787603324 | 22.78° C | 67% | 1021.8 hPa | - | - | - | - |
| 1787602425 | 22.78° C | 67% | 1021.9 hPa | - | - | - | - |
| 1787601519 | 22.78° C | 68% | 1022.1 hPa | - | - | - | - |
| 1787600608 | 22.78° C | 67% | 1021.7 hPa | - | - | - | - |
| 1787599708 | 23.33° C | 67% | 1021.4 hPa | - | - | - | - |
| 1787598807 | 23.33° C | 66% | 1021.1 hPa | - | - | - | - |
| 1787596106 | 23.89° C | 66% | 1020.2 hPa | - | - | - | - |
| 1787595206 | 23.89° C | 66% | 1019.9 hPa | - | - | - | - |
| 1787594306 | 24.44° C | 66% | 1019.5 hPa | - | - | - | - |
| 1787593407 | 24.44° C | 65% | 1019.6 hPa | - | - | - | - |
| 1787591606 | 23.89° C | 65% | 1020 hPa | - | - | - | - |
| 1787589814 | 25° C | 63% | 1020.3 hPa | - | - | - | - |
| 1787588007 | 23.89° C | 56% | 1020 hPa | - | - | - | - |
| 1787587113 | 23.89° C | 52% | 1019.8 hPa | - | - | - | - |
* Rain since midnight (hover to see other rain measurements)
** Current wind speed in m/s (hover to see current wind gust speed)